EW7794 Weather Reports


time (UTC)temp
C
wind
direction
speed
KPH
gust
KPH
rain 1hr
cm
rain 24hr
cm
rain mn
cm
humidity
%
barometer
mb
20260505064020 15 248 3.2 11.3 0.00 0.00 0.00 80 1002.8
20260505063020 16 203 1.6 6.4 0.00 0.00 0.00 79 1002.6
20260505062020 16 203 4.8 12.9 0.00 0.00 0.00 78 1002.6
20260505061039 15 180 4.8 14.5 0.00 0.00 0.00 78 1002.4
20260505060020 15 180 8.0 16.1 0.00 0.00 0.00 78 1002.2
20260505055019 15 180 11.3 17.7 0.00 0.00 0.00 77 1002.3
20260505054020 15 180 11.3 22.5 0.00 0.00 0.00 77 1002.3
20260505053019 15 180 12.9 22.5 0.00 0.00 0.00 77 1002.4
20260505052039 15 180 8.0 17.7 0.00 0.00 0.00 79 1002.4
20260505051019 15 180 9.7 16.1 0.00 0.00 0.00 80 1002.3
20260505041019 16 180 9.7 17.7 0.00 0.00 0.00 75 1002.5
20260505040019 16 203 6.4 17.7 0.00 0.00 0.00 72 1002.4
20260505035039 16 180 12.9 22.5 0.00 0.00 0.00 69 1002.7
20260505034019 16 180 9.7 14.5 0.00 0.00 0.00 69 1002.8
20260505033019 16 203 6.4 12.9 0.00 0.00 0.00 70 1002.7
20260505032019 16 180 6.4 14.5 0.00 0.00 0.00 71 1002.9
20260505031038 16 180 4.8 11.3 0.00 0.00 0.00 71 1003.0
20260505030019 16 180 8.0 17.7 0.00 0.00 0.00 69 1002.9
20260505025019 17 180 12.9 29.0 0.00 0.00 0.00 63 1003.1
20260505024039 17 180 9.7 20.9 0.00 0.00 0.00 53 1003.0
20260505023019 17 180 6.4 12.9 0.00 0.00 0.00 51 1002.5
20260505022018 17 180 4.8 12.9 0.00 0.00 0.00 50 1002.6
20260505021019 16 180 4.8 11.3 0.00 0.00 0.00 50 1002.3
20260505020039 17 180 4.8 8.0 0.00 0.00 0.00 48 1002.5
20260505015019 17 180 3.2 6.4 0.00 0.00 0.00 49 1002.7
20260505014019 17 180 1.6 6.4 0.00 0.00 0.00 50 1002.7
20260505013019 16 180 1.6 4.8 0.00 0.00 0.00 53 1002.6
20260505012019 16 0.0 3.2 0.00 0.00 0.00 58 1002.6
20260505011018 16 0.0 1.6 0.00 0.00 0.00 60 1002.5
20260505010038 16 0.0 1.6 0.00 0.00 0.00 61 1002.3
20260505005018 16 0.0 1.6 0.00 0.00 0.00 58 1002.2
20260505004018 16 0.0 1.6 0.00 0.00 0.00 59 1002.3
20260505003018 17 0.0 3.2 0.00 0.00 0.00 55 1002.2
20260505002018 17 270 1.6 3.2 0.00 0.00 0.00 51 1002.3
20260505001018 18 270 3.2 3.2 0.00 0.00 0.00 49 1002.4
20260505000020 19 270 3.2 4.8 0.00 0.00 0.00 48 1002.4
20260504235038 20 293 3.2 6.4 0.00 0.00 0.00 46 1002.3
20260504234018 20 293 3.2 6.4 0.00 0.00 0.00 45 1002.2
20260504233038 20 270 6.4 16.1 0.00 0.00 0.00 43 1002.1
20260504232018 21 270 6.4 12.9 0.00 0.00 0.00 37 1002.2
20260504231018 22 248 3.2 9.7 0.00 0.00 0.00 37 1002.1
20260504230018 22 248 6.4 19.3 0.00 0.00 0.00 37 1002.1
20260504225018 22 248 8.0 19.3 0.00 0.00 0.00 36 1002.1
20260504224038 22 225 4.8 12.9 0.00 0.00 0.00 37 1002.1
20260504223018 22 248 6.4 17.7 0.00 0.00 0.00 35 1002.0
20260504222019 23 248 6.4 17.7 0.00 0.00 0.00 36 1002.0
20260504221018 23 248 8.0 17.7 0.00 0.00 0.00 35 1002.1
20260504220038 23 270 6.4 16.1 0.00 0.00 0.00 35 1002.1
20260504215038 22 270 11.3 22.5 0.00 0.00 0.00 35 1002.1
20260504214018 22 225 4.8 14.5 0.00 0.00 0.00 38 1002.2
20260504213020 22 248 9.7 17.7 0.00 0.00 0.00 36 1002.3
20260504212018 22 225 8.0 14.5 0.00 0.00 0.00 38 1002.5
20260504211038 22 180 8.0 16.1 0.00 0.00 0.00 38 1002.6
20260504210038 22 248 6.4 16.1 0.00 0.00 0.00 38 1002.7
20260504205706 22 270 11.3 25.7 0.00 0.00 0.00 37 1002.7
20260504201020 22 270 9.7 20.9 0.00 0.00 0.00 38 1003.1
20260504200019 22 248 8.0 27.4 0.00 0.00 0.00 39 1003.3
20260504195020 22 248 8.0 25.7 0.00 0.00 0.00 38 1003.4
20260504194040 22 248 8.0 22.5 0.00 0.00 0.00 41 1003.6
20260504193020 22 248 11.3 27.4 0.00 0.00 0.00 42 1003.7
20260504192018 22 225 11.3 27.4 0.00 0.00 0.00 41 1003.8
20260504191019 22 203 12.9 30.6 0.00 0.00 0.00 43 1004.0
20260504190020 21 248 11.3 25.7 0.00 0.00 0.00 42 1004.1
20260504185040 21 225 8.0 17.7 0.00 0.00 0.00 44 1004.3
20260504184019 21 270 16.1 29.0 0.00 0.00 0.00 44 1004.4
20260504183059 21 248 12.9 25.7 0.00 0.00 0.00 43 1004.6
20260504182020 21 248 9.7 22.5 0.00 0.00 0.00 46 1004.6
20260504181020 21 270 14.5 30.6 0.00 0.00 0.00 47 1004.6
20260504180019 20 270 12.9 24.1 0.00 0.00 0.00 47 1004.8
20260504175019 20 270 16.1 32.2 0.00 0.00 0.00 48 1004.7
20260504174040 20 270 14.5 33.8 0.00 0.00 0.00 49 1004.8
20260504173019 20 270 9.7 25.7 0.00 0.00 0.00 50 1004.8
20260504172020 20 248 12.9 25.7 0.00 0.00 0.00 51 1004.8
20260504171019 20 248 11.3 20.9 0.00 0.00 0.00 50 1004.8
20260504151059 17 248 11.3 25.7 0.00 0.00 0.00 56 1006.0
20260504141019 16 203 8.0 20.9 0.00 0.00 0.00 55 1005.9
20260504081019 10 225 6.4 16.1 0.00 0.00 0.00 58 1007.2